This demonstration page uses our WeatherBlox Daily Observations layout. Learn more.

41.55636, -103.73856

Hourly Observations for January 14, 2018

Temp ( °F °C ) Dew Point ( °F °C ) Humidity (%) Winds ( mph kmh ) Pressure ( in mb ) Visibility ( mi km ) Precip ( " mm )
12:53 am 00:53 Cloudy 36 2.2 32 0 86 86 WNW 12 19 30.36 1028 10 16.09344 0 0
1:53 am 01:53 Cloudy 35 1.7 31 -0.6 85 85 NW 9 15 30.36 1028 10 16.09344 0 0
2:53 am 02:53 Cloudy 36 2.2 30 -1.1 79 79 WNW 10 17 30.36 1028 10 16.09344 0 0
3:53 am 03:53 Cloudy 34 1.1 30 -1.1 85 85 WNW 7 11 30.36 1028 10 16.09344 0 0
4:53 am 04:53 Cloudy 35 1.7 31 -0.6 85 85 W 8 13 30.36 1028 10 16.09344 0 0
5:53 am 05:53 Mostly Clear 32 0 29 -1.7 88 88 WNW 8 13 30.36 1028 10 16.09344 0 0
6:53 am 06:53 Clear 30 -1.1 27 -2.8 88 88 N 7 11 30.36 1028 10 16.09344 0 0
7:53 am 07:53 Sunny 30 -1.1 27 -2.8 88 88 WNW 7 11 30.33 1027 10 16.09344 0 0
8:53 am 08:53 Partly Cloudy 31 -0.6 26 -3.3 82 82 NW 10 17 30.33 1027 10 16.09344 0 0
9:53 am 09:53 Cloudy 34 1.1 27 -2.8 76 76 WNW 13 20 30.3 1026 10 16.09344 0 0
10:53 am 10:53 Cloudy 36 2.2 28 -2.2 73 73 WNW 14 22 30.27 1025 10 16.09344 0 0
11:53 am 11:53 Mostly Cloudy 39 3.9 30 -1.1 70 70 WNW 12 19 30.24 1024 10 16.09344 0 0
12:53 pm 12:53 Cloudy 39 3.9 29 -1.7 67 67 WNW 10 17 30.21 1023 10 16.09344 0 0
1:53 pm 13:53 Cloudy 40 4.4 30 -1.1 68 68 WNW 9 15 30.18 1022 10 16.09344 0 0
2:53 pm 14:53 Cloudy 40 4.4 30 -1.1 68 68 WNW 9 15 30.18 1022 10 16.09344 0 0
3:53 pm 15:53 Cloudy 39 3.9 30 -1.1 70 70 NW 9 15 30.18 1022 10 16.09344 0 0
4:53 pm 16:53 Cloudy 39 3.9 30 -1.1 70 70 WNW 9 15 30.21 1023 10 16.09344 0 0
5:53 pm 17:53 Cloudy 39 3.9 30 -1.1 70 70 NNW 15 24 30.21 1023 10 16.09344 0 0
6:53 pm 18:53 Partly Cloudy 38 3.3 29 -1.7 70 70 NW 9 15 30.24 1024 10 16.09344 0 0
7:53 pm 19:53 Cloudy 37 2.8 30 -1.1 76 76 N 13 20 30.27 1025 10 16.09344 0 0
8:53 pm 20:53 Cloudy 33 0.6 27 -2.8 78 78 N 25 41 30.33 1027 10 16.09344 0 0
9:37 pm 21:37 Cloudy with Light Snow 31 -0.6 26 -3.3 82 82 N 18 30 30.42 1030 2.5 4.02336 0.001 0.001
9:46 pm 21:46 Cloudy with Light Snow 30 -1.1 26 -3.3 85 85 N 17 28 30.45 1031 3 4.828032 0.01 0.254
9:53 pm 21:53 Cloudy with Light Snow 30 -1.1 27 -2.8 88 88 N 15 24 30.36 1028 2.5 4.02336 0.01 0.254
10:16 pm 22:16 Cloudy with Light Snow 28 -2 27 -3 93 93 NNE 14 22 30.45 1031 1.75 2.816352 0 0
10:30 pm 22:30 Cloudy with Light Snow 28 -2 27 -3 93 93 ENE 3 6 30.45 1031 1.75 2.816352 0 0
10:53 pm 22:53 Cloudy with Light Snow 28 -2.2 26 -3.3 92 92 NNE 6 9 30.39 1029 1.25 2.01168 0.01 0.254
11:05 pm 23:05 Cloudy with Light Snow 28 -2.2 24 -4.4 85 85 NNW 14 22 30.45 1031 2 3.218688 0.001 0.001
11:31 pm 23:31 Cloudy with Light Snow 27 -2.8 23 -5 85 85 N 14 22 30.5 1033 4 6.437376 0.01 0.254
11:39 pm 23:39 Cloudy with Light Snow 27 -2.8 23 -5 85 85 N 10 17 30.5 1033 4 6.437376 0.01 0.254
11:53 pm 23:53 Cloudy with Light Snow 27 -2.8 22 -5.6 81 81 N 17 28 30.39 1029 8 12.874752 0.01 0.254

Powered by AerisWeather